Чаян

Казахстан     43˚01′58″N   69˚22′58″E
темп.,
°C
ветер,
м/с
пор.,
м/с
влажн.,
%
обл.,
%
осадки,
мм/ч
давл.,
гПа
погр.,
м
6 декабря, вс
вс623:00−7˚юв117897 0.0 103421
02:00−8˚ю018166 0.0 103421
05:00−8˚в118070 0.0 103521
08:00−8˚ююв1178100 0.0 103521
11:00−5˚з1169100 0.0 1035222
14:00−3˚зсз116681 0.0 1033279
17:00−6˚сз118053 0.0 103321
20:00−7˚ссз118110 0.0 103321
7 декабря, пн
пн723:00−7˚сз11825 0.0 103221
02:00−8˚сз118310 0.0 103121
05:00−8˚сз118437 0.0 103121
08:00−9˚сз118656 0.0 103121
11:00−6˚юз227843 0.0 1032304
14:00−5˚ююз00714 0.0 1031321
17:00−8˚сз11832 0.0 103321
20:00−9˚ссв11840 0.0 103421
8 декабря, вт
вт823:00−9˚всв11820 0.0 103521
02:00−9˚св12780 0.0 103521
05:00−9˚св11720 0.0 103521
08:00−9˚св12640 0.0 103621
11:00−4˚с11500 0.0 1036135
14:00−2˚ссз12490 0.0 1035240
17:00−6˚ссв22660 0.0 103621
20:00−8˚всв33680 0.0 103736
9 декабря, ср
ср923:00−8˚всв23690 0.0 103726
02:00−8˚св22660 0.0 103721
05:00−8˚св22650 0.0 103721
08:00−7˚св22610 0.0 103721
11:00−2˚с11530 0.0 1036106
14:00ссз22560 0.0 1034145
17:00−4˚с12710 0.0 103421
20:00−4˚св22710 0.0 103321
10 декабря, чт
чт1023:00−4˚ссв22680 0.0 103222
02:00−5˚ссв11660 0.0 103221
05:00−5˚всв11690 0.0 103221
08:00−5˚с11690 0.0 103321
11:00сз11570 0.0 103385
14:00+1˚сз11580 0.0 1033180
17:00−3˚с11730 0.0 103321
20:00−3˚всв12660 0.0 103421